Wind_Speed
12 12 12 12 12 12 12 12 12 11 11 10 9 8 7 6 5 5 6 7 9 10 10 10 10 10 11 11 11 11 11 11 11 11 12 13 13 13 12 12 11 11 11 10 10 9 7 6 5 5 5 6 5 5 4 3 3 3 4 3 2 2 2 2 3 3 3 2 2
11 12 12 13 13 12 13 13 12 11 10 9 9 9 8 6 5 5 6 7 8 9 9 10 10 11 11 11 11 11 12 12 12 12 11 11 11 10 10 10 10 10 9 9 9 8 7 6 5 5 5 5 4 4 3 1 0 1 1 2 3 3 3 4 4 4 4 4 4
12 12 13 13 14 14 13 12 10 9 8 9 9 10 9 7 6 6 6 7 8 9 10 11 11 12 12 12 12 13 13 13 13 12 12 10 10 9 10 10 9 9 8 7 7 6 5 5 5 5 4 4 5 5 5 4 3 4 5 6 7 6 7 8 8 8 8 8 7
12 12 12 13 13 13 12 11 10 10 10 10 11 10 9 8 7 7 8 9 10 11 12 13 14 15 15 15 15 15 15 15 15 14 13 11 10 10 10 9 9 8 7 6 5 4 4 5 5 5 5 6 6 7 7 7 7 8 9 10 10 10 11 11 11 11 10 10 9
12 12 12 12 12 11 11 11 12 12 12 12 12 12 10 9 9 9 10 12 13 14 15 16 17 17 17 17 17 17 17 17 16 15 15 14 13 12 11 10 9 8 7 6 5 5 5 6 7 8 9 9 9 10 10 9 10 11 12 12 12 12 12 12 11 10 9 9 9
12 12 12 12 12 11 11 12 13 14 14 14 14 13 12 12 12 13 14 15 16 17 17 17 18 18 18 18 18 18 18 17 16 16 16 16 15 14 13 12 11 10 9 9 8 8 9 10 11 12 12 12 13 13 12 11 11 12 12 12 11 10 9 9 8 8 7 7 7
13 13 14 14 14 14 15 15 16 16 16 16 15 15 15 15 15 16 17 17 18 19 19 18 18 18 18 18 18 18 17 17 17 17 17 18 17 16 16 15 14 13 13 12 12 12 12 13 14 15 15 15 15 14 13 11 11 10 11 11 9 8 8 8 8 7 7 7 7
14 15 15 16 16 17 18 18 18 18 18 17 17 17 17 17 18 18 18 19 19 20 20 19 19 19 19 19 19 19 18 18 18 19 19 19 19 18 18 17 16 16 15 15 14 15 15 15 16 16 16 15 15 14 11 9 8 8 9 10 9 8 8 8 8 7 7 7 7
17 17 17 18 18 19 20 20 20 20 20 19 19 19 19 19 20 20 20 20 20 20 20 20 20 20 20 20 20 20 20 20 20 20 20 19 19 19 19 18 18 17 17 16 15 15 15 15 15 15 14 14 13 12 10 8 7 8 9 10 9 9 8 8 8 7 7 7 8
19 19 19 20 20 20 21 21 20 21 21 22 21 21 21 21 21 21 21 21 21 22 21 21 21 21 21 21 21 21 21 21 21 21 20 19 19 19 18 18 17 17 16 15 14 13 13 13 13 13 13 12 12 11 9 7 8 9 10 10 9 9 8 8 8 8 7 7 7
22 21 21 21 21 21 21 22 22 22 22 23 22 22 22 22 22 22 22 22 23 23 23 22 22 23 23 23 22 22 22 21 21 21 20 19 18 18 17 17 16 15 15 14 12 11 11 11 12 13 13 12 11 11 10 8 8 10 10 9 8 8 8 8 8 7 7 7 6
24 23 23 23 22 22 22 23 23 23 23 23 23 23 23 23 23 23 23 24 24 24 23 22 23 23 23 23 22 21 21 20 20 20 19 19 18 17 17 16 15 15 14 12 11 10 11 11 12 13 13 12 12 11 10 9 9 9 9 8 8 8 8 8 8 7 7 6 5
25 24 24 24 23 23 23 24 24 24 24 24 24 23 23 23 24 24 24 25 25 24 23 23 22 23 23 22 21 20 19 19 18 18 18 18 17 17 16 15 15 14 14 13 12 11 11 12 12 12 13 13 12 11 10 9 8 9 8 8 8 8 9 8 8 7 6 5 5
25 25 25 24 24 24 25 25 25 25 25 25 24 24 24 24 24 25 25 25 25 25 24 23 23 22 22 21 20 20 19 18 18 18 17 17 16 16 15 15 15 14 14 14 13 12 12 12 12 12 12 13 12 11 10 9 9 9 8 8 9 9 9 8 7 6 6 5 5
26 26 25 25 25 25 26 26 26 25 25 25 24 24 25 25 25 25 26 26 25 25 24 24 24 23 22 21 20 20 19 18 18 18 17 17 16 16 16 15 15 14 14 14 13 13 13 13 12 12 12 12 12 11 10 10 10 10 10 10 10 10 9 9 8 7 7 7 7
27 26 26 26 26 26 27 27 27 26 26 25 25 24 25 25 26 26 26 26 25 24 24 24 24 23 21 20 19 19 18 18 17 17 17 17 16 16 15 15 15 14 14 13 13 13 13 13 12 12 12 12 12 12 11 11 11 11 11 11 11 11 11 10 9 9 9 8 8
28 27 27 27 27 27 27 27 27 27 26 25 24 24 25 25 26 26 26 25 25 24 24 23 22 21 20 19 18 17 17 17 16 16 16 16 16 15 15 15 15 14 13 13 13 13 13 13 12 12 11 12 12 12 12 12 12 13 13 13 13 12 12 11 11 10 10 10 10
28 28 27 27 27 26 26 26 26 26 25 24 23 23 24 25 25 25 24 24 23 23 23 22 21 20 19 19 18 16 16 16 16 16 16 16 16 16 16 16 15 14 13 13 13 13 13 13 13 12 12 12 12 13 13 13 14 14 14 14 14 13 13 12 12 12 11 11 11
28 27 27 26 26 25 25 25 25 25 24 23 23 23 23 24 24 23 23 22 20 20 20 20 19 18 18 18 17 17 17 17 17 17 17 17 17 17 17 17 16 15 14 14 14 13 13 13 13 12 12 12 13 13 14 14 15 15 15 15 14 14 14 13 13 13 12 12 11
26 26 26 25 25 24 24 24 25 25 25 24 23 23 23 22 22 22 21 20 18 17 17 18 18 18 17 17 17 18 17 17 17 17 17 17 17 17 17 17 16 15 15 14 14 13 13 13 12 12 12 13 13 14 15 15 16 16 16 15 15 14 14 13 13 13 12 12 12
25 25 25 25 24 24 24 24 25 25 25 24 23 23 23 22 22 21 21 19 18 17 17 18 18 18 18 17 18 18 17 17 16 16 16 16 17 17 17 16 16 15 14 14 13 13 12 12 13 13 13 14 15 15 16 17 17 16 16 15 15 14 14 13 13 12 12 12 11
25 25 25 24 24 24 24 24 25 25 25 25 24 24 23 23 23 22 21 20 19 19 18 18 18 18 17 17 17 16 16 15 15 15 15 16 16 17 16 15 15 15 14 13 13 12 12 13 13 13 14 15 16 17 17 17 17 17 16 15 14 14 13 13 12 12 11 11 10
25 25 25 24 24 24 24 24 25 25 25 25 25 24 24 23 23 22 21 20 19 19 19 18 18 17 17 16 15 15 14 14 14 14 14 15 16 16 16 16 16 15 14 13 13 13 13 13 14 14 15 16 17 18 18 18 17 16 15 14 14 13 13 12 12 11 11 10 9
25 25 24 24 24 24 24 24 25 25 25 25 24 24 23 23 22 21 20 19 19 19 19 18 18 17 16 16 15 14 14 14 14 14 14 14 15 16 17 18 17 16 14 13 13 13 13 14 15 15 16 17 18 18 18 17 16 15 15 14 14 14 13 13 12 11 11 10 9
25 25 24 24 24 24 24 25 25 25 25 24 23 23 22 22 21 20 20 20 19 19 19 18 18 17 16 16 15 15 15 14 14 14 14 14 15 16 17 18 18 16 14 13 13 13 13 14 15 16 17 17 18 18 17 16 15 15 15 15 15 15 14 14 13 12 12 11 10
25 25 25 25 24 25 24 24 24 24 23 22 22 22 21 21 20 20 20 20 20 19 19 18 18 17 16 16 16 16 16 15 15 15 15 15 16 16 17 18 17 16 14 13 12 12 13 14 15 16 16 17 17 16 16 15 15 15 15 16 16 16 15 15 15 14 13 12 12
25 25 25 25 25 25 25 24 23 23 22 21 21 21 21 21 20 20 20 20 20 19 18 18 18 17 17 16 16 16 16 16 15 15 16 16 17 17 18 18 17 15 13 12 12 12 12 13 14 15 15 16 16 15 15 15 15 15 16 16 16 16 15 15 15 15 14 14 13
24 25 25 25 26 25 25 24 23 23 22 22 22 22 21 21 21 21 21 21 20 19 19 19 18 17 17 17 17 17 16 16 16 16 16 17 18 18 18 18 17 15 13 12 11 12 12 12 13 14 15 15 15 15 15 15 15 15 15 15 15 15 15 15 15 15 15 15 14
24 25 25 26 26 25 24 24 24 23 23 22 22 22 22 22 22 21 21 21 20 20 20 19 18 17 18 18 18 17 17 17 17 16 17 18 19 19 19 18 17 14 12 11 11 12 12 12 13 13 15 15 14 14 14 14 14 14 14 14 14 14 14 14 15 15 15 15 15
24 25 25 26 25 25 24 24 24 23 23 22 22 22 22 22 21 21 21 21 21 20 19 18 18 18 19 18 18 17 17 17 17 17 18 19 20 20 20 19 17 14 12 11 11 11 12 13 13 13 14 14 14 13 13 13 13 13 13 13 13 14 14 14 15 15 15 15 15
24 25 25 25 25 25 24 24 23 23 22 22 22 22 22 22 22 22 21 21 20 19 18 17 18 19 19 18 17 17 17 17 17 17 18 19 20 20 19 19 17 14 12 11 12 12 13 13 13 13 14 14 13 13 13 13 13 12 12 13 13 14 14 15 15 16 16 17 17
24 24 24 25 25 24 24 23 23 22 22 22 22 23 23 23 23 22 21 20 19 19 18 18 19 19 18 18 17 17 17 16 16 17 17 18 19 19 19 19 17 15 13 12 12 13 13 13 13 13 14 14 13 13 13 12 12 12 12 13 13 14 15 15 16 17 17 17 17
23 24 24 25 25 24 24 23 23 23 23 23 23 23 23 23 22 21 20 20 19 19 19 19 19 19 19 18 17 17 16 16 15 15 16 16 17 18 19 19 18 16 13 12 12 12 12 12 13 13 13 13 13 13 13 12 12 12 12 13 14 14 15 16 17 17 18 17 17
23 24 24 24 24 24 23 23 23 22 23 23 23 23 23 22 22 22 21 20 20 20 20 20 20 19 18 17 17 16 16 15 14 14 14 15 16 17 18 19 18 16 14 12 11 11 10 11 12 13 13 13 13 13 13 13 12 13 13 14 14 15 16 17 17 18 18 17 17
22 23 24 23 23 23 22 22 22 22 22 23 23 23 22 22 23 22 22 20 20 20 20 20 19 18 18 17 16 15 15 14 13 13 13 13 14 16 17 18 18 17 15 13 11 10 10 10 11 12 12 12 13 14 15 14 14 14 15 15 16 17 17 18 18 18 17 17 17
22 22 23 23 22 22 21 21 21 21 22 23 22 22 22 22 22 21 20 19 19 19 20 19 18 18 18 17 16 16 15 14 13 12 12 12 12 14 15 16 17 17 15 13 11 10 10 10 11 12 13 13 14 15 15 15 15 16 16 17 18 18 18 18 18 18 17 17 17
21 21 22 22 22 22 21 21 21 22 22 22 22 21 21 21 21 19 18 17 18 19 19 19 19 19 19 19 18 17 15 14 13 12 12 11 11 12 13 14 15 15 15 13 12 11 11 11 12 13 14 15 16 16 16 16 16 17 17 18 18 18 18 18 18 18 18 17 17
21 21 21 21 21 21 21 21 22 22 22 22 21 20 20 19 19 18 17 16 18 19 19 19 20 20 20 19 19 18 17 16 15 14 13 13 12 12 12 13 14 14 14 13 12 11 12 13 14 16 16 16 17 17 17 17 17 17 18 18 18 18 17 18 18 18 18 18 17
20 20 20 21 21 21 21 21 22 22 21 21 20 19 19 19 19 18 17 17 17 19 19 20 20 20 19 19 19 19 19 18 17 16 15 15 14 13 13 13 14 14 14 13 13 13 13 14 15 16 17 17 16 16 16 16 17 17 17 18 18 17 17 18 18 19 19 18 17
19 19 19 20 20 21 21 22 22 21 21 20 20 20 20 19 19 18 17 17 18 18 19 20 20 19 19 19 20 20 20 20 19 18 17 16 15 14 14 14 14 14 14 14 14 14 13 13 14 15 16 16 16 15 15 15 16 16 17 18 18 18 18 19 20 20 20 19 17
18 19 19 20 20 20 21 21 21 20 20 20 20 20 19 19 18 18 18 18 18 18 19 19 19 19 19 19 20 20 21 21 20 19 18 17 16 15 15 15 15 15 15 16 15 14 14 13 13 14 15 15 15 14 14 15 15 16 17 18 18 19 20 21 22 22 21 19 17
Wind_Direction
199 205 212 215 211 209 210 215 217 211 204 205 219 236 247 242 224 209 203 200 198 197 198 201 205 213 218 218 215 214 218 224 225 217 203 192 187 187 189 190 190 189 187 185 182 180 183 192 202 210 215 218 212 206 207 224 242 261 273 281 301 316 329 0 24 37 52 78 111
200 205 212 216 215 213 212 211 206 197 191 196 214 231 242 243 230 212 199 190 188 186 186 187 195 203 207 207 206 207 210 211 210 206 199 193 192 194 196 192 182 178 179 179 177 178 183 192 202 206 204 202 188 165 149 145 8 8 43 67 71 70 72 81 86 92 104 118 129
201 207 212 214 212 208 204 199 196 197 200 206 215 221 225 225 218 203 188 178 178 177 173 168 173 179 182 183 186 189 191 188 185 185 189 192 196 199 196 188 177 173 174 175 173 174 181 193 201 198 183 165 149 134 119 93 75 84 98 100 100 104 107 107 109 112 115 118 121
194 200 203 203 200 198 197 198 202 205 204 201 200 198 197 195 189 180 173 171 168 164 159 155 155 158 162 164 168 171 171 168 167 169 174 178 179 178 176 173 166 164 164 164 164 171 184 194 193 178 157 141 134 125 115 105 103 106 110 111 114 113 110 107 107 106 106 106 106
176 178 177 178 182 188 196 200 197 193 188 182 173 168 166 165 162 160 158 156 153 151 150 148 147 148 151 154 156 157 157 156 156 158 159 158 155 153 153 153 151 150 148 148 151 159 167 168 158 145 134 128 122 117 114 115 116 115 112 112 111 108 105 102 101 100 99 99 98
155 155 156 158 164 173 180 181 177 172 167 160 152 147 147 149 149 148 146 144 144 146 146 144 142 142 145 147 148 147 146 144 144 144 143 140 138 137 137 136 136 134 131 130 133 138 141 140 133 126 121 119 116 114 115 119 117 114 110 107 105 104 104 102 101 100 99 97 94
145 144 144 146 150 154 156 157 156 153 149 145 141 141 142 145 146 144 143 143 143 143 142 140 138 138 138 139 138 136 134 132 132 131 129 127 127 127 126 124 123 120 119 120 124 127 128 128 122 119 117 115 113 113 114 115 114 112 109 103 102 103 101 97 97 94 92 90 88
145 145 143 143 145 145 144 143 142 142 141 139 138 139 141 143 143 143 142 141 139 139 139 138 135 134 134 132 130 127 125 124 122 122 122 121 121 120 118 117 115 115 115 118 121 123 123 122 118 115 114 113 110 109 109 112 114 113 109 103 101 99 96 92 90 88 87 86 85
139 139 140 142 141 140 138 137 136 135 135 135 135 136 138 141 141 140 138 134 134 135 136 133 131 131 130 128 125 123 122 121 119 118 118 118 117 115 114 114 114 115 116 118 120 121 122 119 116 113 112 110 108 107 108 112 116 114 109 103 100 100 99 97 95 92 90 88 86
131 132 133 133 133 133 133 131 130 129 129 129 131 133 136 138 137 135 132 130 131 130 129 127 127 126 125 123 121 120 119 119 118 117 116 115 114 113 112 112 113 113 114 115 117 119 120 117 113 111 110 109 107 106 106 110 112 110 106 104 104 104 103 100 97 93 90 87 85
126 127 127 126 126 127 127 124 121 121 122 123 126 129 131 130 129 127 127 127 126 124 122 122 122 121 120 119 118 117 117 117 117 115 113 111 110 110 109 109 109 108 107 107 109 111 113 112 111 109 107 106 104 102 102 104 107 107 106 106 107 106 101 95 91 87 83 82 83
122 122 123 122 123 123 121 117 114 114 116 117 119 121 122 121 121 121 122 123 120 119 118 118 117 116 116 115 114 114 114 114 114 113 110 107 106 105 104 103 102 100 98 96 97 100 103 104 106 105 104 101 99 97 98 100 104 105 105 104 104 99 91 84 80 76 75 74 75
118 118 117 118 119 119 116 112 110 110 111 111 112 114 115 115 116 117 117 116 114 113 113 112 111 110 110 109 109 109 108 108 108 108 106 103 101 100 99 97 95 93 91 90 90 92 95 97 99 99 97 95 93 91 92 95 97 96 95 92 88 82 75 71 68 65 63 62 60
114 114 113 113 114 113 111 108 107 107 107 106 107 108 109 110 111 112 111 109 108 107 107 106 104 104 104 104 104 103 102 102 101 101 100 99 98 97 96 95 93 92 91 89 88 88 87 87 88 88 89 87 86 84 83 82 81 78 74 69 64 60 57 53 49 44 40 38 36
109 109 109 110 109 108 106 105 104 104 104 103 103 104 105 105 106 107 106 104 102 102 103 102 101 100 101 101 101 100 99 98 97 97 97 97 97 96 96 95 94 93 92 90 87 83 80 78 77 78 79 79 78 75 71 68 65 61 57 53 49 46 42 37 30 24 19 17 15
103 104 105 105 104 103 102 101 101 102 101 100 101 102 102 102 103 104 103 101 100 100 101 101 101 101 100 100 99 98 98 97 97 97 98 99 99 98 97 96 94 92 91 89 85 80 76 73 71 71 72 72 71 67 64 60 56 53 49 45 42 38 34 29 23 19 15 10 9
98 98 99 99 99 98 97 98 98 99 99 98 99 98 99 100 101 101 100 99 99 100 100 100 101 101 101 100 99 99 99 99 99 99 100 100 100 100 98 96 93 91 89 87 82 78 74 70 68 67 67 67 65 62 58 55 51 48 45 42 38 35 31 27 24 20 17 13 12
93 94 94 94 93 93 94 95 96 96 96 96 96 97 98 99 99 99 99 99 100 100 100 101 102 102 102 102 102 103 104 103 102 101 100 100 99 98 96 94 92 90 88 84 79 75 70 67 63 61 61 61 59 56 52 49 46 43 40 37 35 32 29 26 24 21 19 18 17
89 90 90 90 90 90 91 93 94 95 96 97 97 98 98 99 100 100 100 101 102 103 102 102 103 103 104 105 106 106 106 104 103 101 99 98 96 94 92 90 88 85 82 78 75 71 66 62 59 56 55 54 53 50 46 43 40 38 35 33 31 29 27 25 24 22 21 20 20
87 87 88 89 89 90 90 92 94 96 98 99 100 100 101 102 104 104 104 105 107 108 108 107 107 107 108 108 107 105 103 102 101 100 99 97 94 91 88 85 83 79 76 73 70 67 65 61 57 54 52 50 48 45 41 38 35 33 31 29 28 27 26 26 25 25 24 23 23
85 86 87 88 89 90 91 93 95 98 100 101 102 103 104 105 106 107 107 110 112 113 112 111 110 109 108 107 104 101 100 100 101 102 101 99 95 91 87 84 80 77 73 71 70 69 67 63 59 54 50 47 43 40 36 34 32 31 29 28 28 28 28 28 29 29 29 29 28
85 87 87 88 89 91 93 94 96 99 101 102 103 104 105 105 105 106 108 110 111 110 108 106 104 103 102 100 99 99 99 100 102 104 104 102 97 92 87 82 77 74 73 73 73 71 69 65 59 53 47 43 40 37 34 32 31 30 30 30 31 32 32 34 34 35 35 34 33
88 90 91 92 93 94 95 96 98 99 100 101 102 102 102 102 102 103 104 104 102 100 98 96 95 94 94 94 95 97 99 102 104 107 108 106 100 93 86 78 73 71 71 72 71 69 67 63 58 51 45 41 38 35 33 32 31 31 32 34 36 38 39 40 40 40 40 39 37
92 94 95 97 98 98 98 98 99 99 99 99 99 99 99 99 99 99 98 97 95 94 93 92 92 91 91 92 94 96 99 103 106 108 109 106 100 92 84 77 72 69 67 68 68 67 64 61 56 49 44 40 37 36 34 34 34 35 38 40 42 44 44 44 44 43 41 40 38
95 97 99 100 100 100 99 99 98 98 97 97 98 97 97 97 97 96 96 95 95 94 94 94 94 93 94 95 96 97 98 101 104 105 104 100 95 90 85 80 77 74 71 71 68 65 62 58 53 47 42 39 37 36 37 38 40 43 46 48 49 49 48 48 47 45 43 41 38
98 99 100 100 101 100 99 99 99 98 98 98 98 97 97 97 97 97 96 96 96 96 95 95 94 94 94 94 95 95 96 97 99 99 97 93 90 85 83 81 80 80 81 82 75 67 61 56 51 46 42 40 38 39 41 45 49 52 54 54 53 51 50 49 47 46 45 43 41
98 99 100 101 101 100 100 100 100 100 100 100 99 98 98 98 98 98 97 97 96 95 93 92 91 90 90 89 89 89 90 92 94 94 93 90 86 83 80 78 78 79 81 84 82 75 67 59 52 48 44 42 41 43 47 53 57 58 58 56 53 50 49 48 46 46 45 44 43
96 98 100 101 100 100 100 101 100 100 99 99 99 98 98 98 97 96 95 94 92 90 88 87 86 86 85 84 83 85 86 89 91 92 92 90 87 83 80 78 77 78 81 85 86 84 78 70 61 52 47 44 43 46 51 56 59 59 56 53 50 48 47 46 45 44 42 41 41
95 97 98 98 98 98 99 99 99 98 98 98 98 98 97 95 93 92 90 88 85 83 82 82 82 82 81 81 82 84 86 89 91 93 94 92 88 84 81 78 77 78 82 86 89 87 82 74 66 56 48 45 45 47 52 56 57 55 52 49 46 45 45 45 43 40 37 35 33
94 95 95 95 95 96 96 97 97 97 97 97 96 95 93 90 88 85 83 81 80 79 79 80 80 80 80 81 83 85 88 91 94 95 94 91 87 83 80 77 74 75 79 84 88 86 79 72 64 55 48 45 45 48 51 52 51 49 47 45 44 44 43 41 38 34 30 26 22
93 93 93 93 93 93 94 96 96 96 96 95 93 90 87 85 82 80 79 79 79 79 79 79 79 80 81 82 83 86 90 93 96 95 93 90 87 84 81 76 72 70 73 80 84 82 76 68 61 54 48 43 43 45 45 45 45 44 44 44 44 44 41 37 32 28 23 19 15
92 93 93 93 93 94 95 96 96 96 95 92 90 87 84 83 81 81 80 80 81 81 81 80 81 83 84 85 86 89 92 94 95 94 93 91 89 86 82 76 71 67 67 75 79 77 71 63 57 50 43 39 39 40 40 40 41 43 45 46 45 42 37 32 26 22 19 15 12
93 94 94 94 95 96 97 97 96 95 93 90 88 86 84 84 84 83 83 83 83 83 83 83 83 84 85 86 88 89 91 92 93 93 93 92 90 86 82 76 69 63 62 69 72 70 65 59 53 45 38 33 34 36 39 41 44 45 46 45 42 37 32 26 21 18 16 13 10
93 94 95 95 96 96 96 96 94 93 90 88 87 86 86 87 87 86 86 85 84 84 83 83 83 83 84 84 85 86 87 89 91 92 91 90 89 86 81 76 69 61 57 62 66 65 61 55 50 44 38 33 34 38 43 46 48 47 44 40 35 29 24 20 18 16 14 11 10
94 94 95 95 95 95 95 94 93 91 90 89 88 89 89 89 89 88 88 87 87 86 84 84 84 83 83 82 82 82 83 84 86 87 88 87 87 84 80 75 71 64 57 55 56 59 59 56 53 50 44 40 41 44 47 47 45 40 34 29 24 20 17 15 15 14 12 10 10
94 95 96 96 95 95 95 94 94 92 92 91 91 91 91 91 90 89 89 89 88 86 84 82 81 79 78 76 76 75 76 77 79 81 83 83 83 81 78 75 72 66 59 50 49 49 49 55 59 57 52 49 47 46 45 40 34 29 24 20 17 15 13 13 12 12 11 9 9
96 96 97 97 97 97 97 96 95 94 93 92 92 91 91 91 90 89 89 88 87 85 82 80 77 75 74 73 72 72 72 73 75 76 77 78 78 78 78 76 72 66 58 49 48 44 43 50 58 57 53 49 45 41 36 30 24 20 16 14 13 12 12 11 11 10 9 8 8
96 97 98 98 98 97 97 96 95 94 93 92 92 91 91 89 88 86 85 84 84 83 81 79 78 77 76 76 75 74 73 73 73 73 74 75 75 77 79 78 74 68 60 50 47 44 45 49 54 52 46 42 37 32 27 23 19 15 13 12 11 11 11 10 9 7 6 5 5
96 97 97 98 98 98 97 95 94 94 93 93 92 90 88 86 84 83 82 82 82 82 81 80 80 80 80 80 79 77 74 73 72 72 73 74 76 79 81 80 76 69 60 50 44 43 44 46 47 42 37 33 27 23 19 17 15 14 13 12 12 11 10 7 5 2 1 1 2
96 97 97 98 98 98 97 96 95 95 94 93 90 88 86 84 83 82 82 82 81 81 81 82 82 83 83 83 81 78 75 72 71 70 71 73 77 80 81 79 73 66 58 49 42 40 40 39 37 34 30 25 22 17 14 12 13 15 15 15 13 10 6 1 358 356 356 358 1
97 97 98 99 99 99 98 97 96 96 94 92 89 87 86 85 84 82 82 81 81 81 82 83 84 84 84 83 80 77 74 71 69 69 70 73 76 78 78 75 69 62 55 48 42 38 35 33 29 26 24 21 19 17 15 13 16 19 19 16 11 5 360 355 352 352 354 358 2
Height
746 747 748 748 749 749 750 751 752 752 753 754 754 756 756 757 757 757 758 758 758 758 758 758 758 759 759 760 761 762 762 763 763 764 764 765 765 766 767 767 768 769 769 770 770 771 771 771 772 773 773 774 774 775 775 775 775 775 775 775 775 776 776 777 777 778 778 779 779
745 747 747 748 748 749 750 751 751 751 752 752 754 755 756 756 757 757 757 758 758 758 758 758 758 759 759 760 760 761 762 763 763 764 765 765 766 766 767 767 768 769 770 770 770 770 770 771 771 772 773 774 774 774 774 774 774 774 775 775 775 776 776 777 778 778 779 779 779
745 746 746 747 747 748 749 749 750 750 751 752 753 754 755 756 756 757 757 757 758 758 758 758 758 759 759 759 760 761 762 762 763 764 764 765 766 766 767 767 768 769 770 770 770 769 769 770 771 772 773 774 774 774 774 774 774 774 774 775 776 776 777 777 778 778 779 779 779
744 745 746 746 747 747 748 749 749 750 751 752 752 753 754 755 756 756 757 757 758 758 758 758 759 759 759 759 760 761 762 762 763 763 764 765 765 766 767 767 768 769 770 770 769 769 770 770 771 772 773 773 773 773 773 774 774 774 774 775 776 776 777 777 778 778 779 779 779
744 744 745 746 746 746 747 748 749 750 750 751 752 752 753 754 755 756 757 757 757 758 758 759 759 759 759 759 760 761 761 762 762 763 763 764 765 766 767 767 768 769 769 769 769 770 770 771 771 772 772 773 773 773 774 774 774 774 775 775 776 776 776 777 778 778 779 779 779
743 744 745 745 745 746 747 748 749 749 750 751 751 751 753 754 755 756 756 757 757 758 759 759 759 759 760 760 760 761 761 762 762 763 763 764 765 766 767 767 768 769 769 769 769 770 771 771 771 772 772 773 773 774 774 774 774 774 775 775 776 776 777 777 778 778 779 779 779
743 744 744 745 745 746 747 748 749 749 749 750 750 751 752 754 755 756 756 757 757 758 758 759 759 760 760 760 760 761 762 762 763 763 763 764 765 766 767 767 768 768 769 769 770 771 772 772 772 772 773 773 773 774 774 774 775 775 775 775 776 777 777 778 778 778 779 779 779
743 744 744 744 745 746 747 748 748 749 749 749 750 751 752 754 755 755 756 757 757 758 758 759 760 760 760 760 761 761 762 763 763 764 764 765 766 766 767 767 768 769 769 770 771 772 772 773 773 773 773 773 774 774 775 775 775 775 775 776 777 777 778 778 779 779 779 779 779
743 744 744 744 745 746 746 748 748 748 748 749 750 751 752 754 755 756 756 757 757 758 759 759 760 761 761 761 761 762 762 763 764 764 765 766 766 766 767 767 768 769 770 771 772 773 773 773 773 773 773 774 774 774 775 775 775 775 776 777 777 778 778 779 779 779 779 779 779
743 744 744 745 746 746 747 748 748 748 748 749 750 751 753 754 755 756 757 757 758 758 759 760 761 761 761 761 762 762 763 764 764 765 766 766 767 767 768 768 769 770 771 772 773 774 774 773 773 773 774 774 774 775 775 775 775 776 777 777 778 778 779 779 779 779 779 779 779
743 744 745 745 746 747 747 748 749 749 749 750 751 752 753 754 755 756 757 758 758 758 759 761 761 761 761 762 763 763 764 764 765 765 766 767 768 768 769 769 770 771 772 773 774 774 774 774 774 774 774 775 775 775 776 776 776 777 778 778 779 779 779 779 779 779 779 779 779
743 744 745 746 746 747 748 749 749 749 750 751 752 753 754 755 756 757 758 758 758 759 760 762 762 762 762 762 764 764 765 765 766 766 767 768 769 769 770 771 771 772 772 773 774 775 775 775 775 775 775 775 776 776 776 777 777 778 779 779 779 779 779 779 779 779 779 780 780
744 745 746 746 747 747 748 749 750 750 751 752 753 754 755 756 757 758 758 758 759 760 761 762 763 763 763 764 765 766 767 767 767 767 768 769 770 770 771 772 772 772 773 774 776 776 777 777 776 776 776 776 776 777 778 778 779 779 779 779 779 779 779 779 779 780 780 780 780
745 745 746 747 747 748 749 750 751 752 753 754 755 756 757 758 758 759 759 759 760 761 762 763 763 764 764 765 766 767 768 768 768 768 769 770 771 771 772 772 773 773 774 776 777 778 778 778 777 777 777 777 778 778 779 779 779 780 780 780 779 779 779 780 780 780 780 780 780
746 746 747 748 748 749 750 750 751 753 754 755 757 758 758 759 759 759 759 760 761 762 763 764 764 765 766 767 768 768 769 769 769 769 770 771 772 773 773 773 774 774 775 777 778 779 779 778 778 778 778 779 779 779 780 780 780 780 780 780 779 779 780 780 780 780 780 780 780
747 747 748 749 749 750 751 752 753 754 755 757 759 759 759 759 760 760 760 761 762 764 764 765 765 766 767 768 769 769 770 770 771 771 772 773 774 774 774 774 775 775 776 777 778 779 779 779 779 779 779 780 780 780 780 780 780 780 780 780 779 780 780 780 780 780 780 780 780
748 749 749 750 751 752 753 753 754 756 757 759 760 760 761 760 761 761 762 763 764 765 766 766 767 768 768 769 770 770 771 772 773 773 774 774 775 775 775 775 776 776 777 778 779 779 779 780 780 780 780 781 781 781 781 781 780 780 780 780 780 780 780 780 780 780 780 780 779
749 750 751 752 753 754 754 755 756 757 759 760 761 762 762 762 762 763 764 765 766 766 767 768 768 769 769 770 771 772 773 773 774 775 775 776 776 776 776 776 776 777 777 778 779 779 780 780 781 781 781 781 781 781 781 781 780 780 780 780 780 780 780 780 780 780 780 779 779
751 752 753 754 754 756 756 757 758 759 760 761 763 763 764 764 764 764 765 767 768 768 769 769 769 770 771 772 773 774 774 775 775 776 777 777 778 777 777 777 777 778 778 779 779 780 781 781 782 782 782 782 782 781 781 781 780 780 780 780 780 780 780 780 780 780 779 779 779
754 754 755 756 757 758 758 759 759 760 761 763 764 764 765 765 766 766 767 768 769 770 770 770 771 772 773 774 774 774 775 776 776 777 778 779 779 779 778 778 779 779 779 779 780 780 781 782 782 782 782 782 782 781 781 780 780 780 780 780 781 781 781 780 780 780 780 779 779
755 756 757 758 758 759 760 760 761 762 763 764 765 766 767 767 768 768 769 770 771 771 772 772 773 773 774 774 775 775 776 777 778 779 780 780 780 780 780 780 780 780 780 780 781 781 782 782 782 782 782 782 781 781 781 781 780 781 781 781 781 781 781 781 781 780 780 780 779
757 758 758 759 760 761 762 762 763 764 765 766 767 768 768 769 769 770 771 772 772 773 773 774 774 774 774 775 775 776 777 778 779 780 781 781 781 781 781 781 781 781 781 781 781 781 782 782 782 782 782 782 781 781 781 781 781 782 782 782 782 782 781 781 781 781 780 780 780
759 759 760 761 762 763 764 765 765 766 767 768 769 769 770 770 771 772 773 773 774 774 774 775 775 775 775 776 776 777 778 779 780 781 782 782 782 782 781 781 781 781 781 781 781 781 782 782 783 783 782 782 782 782 782 782 782 783 783 783 782 782 782 782 781 781 781 781 780
761 762 763 764 765 766 767 767 768 768 769 770 770 771 772 772 773 773 774 774 774 775 775 776 776 776 776 777 778 778 779 780 781 782 782 782 782 782 782 781 781 781 781 781 782 782 782 783 783 783 783 783 783 783 783 784 784 783 783 783 783 783 782 782 782 782 781 781 781
764 765 766 767 768 768 769 769 769 770 771 771 772 773 773 774 774 774 774 775 776 776 776 777 777 777 778 778 779 779 780 781 781 782 782 782 782 782 782 782 782 782 782 782 783 783 783 784 784 784 784 784 784 784 784 784 784 784 784 784 783 783 783 782 782 782 782 781 781
767 767 768 769 769 769 770 770 771 772 772 773 774 774 774 775 775 775 775 776 777 777 777 777 778 779 779 779 780 780 781 781 782 782 782 782 782 782 782 783 783 783 784 784 784 784 784 784 784 785 785 785 786 786 785 785 785 784 784 784 784 784 783 783 783 782 782 782 782
769 769 769 770 770 770 771 772 772 773 774 774 774 775 775 776 776 776 777 777 778 778 778 778 779 779 780 780 780 781 781 782 782 782 782 782 782 783 783 783 784 784 785 785 785 785 786 786 786 787 787 787 787 787 786 785 785 785 784 784 784 784 784 783 783 783 783 782 782
770 770 771 771 771 771 772 773 774 774 774 775 776 776 777 777 777 778 778 778 778 778 779 779 779 780 780 781 781 781 782 782 782 782 783 783 783 783 784 784 784 785 786 786 786 787 787 788 788 788 788 788 787 787 786 786 785 785 785 785 785 784 784 784 784 783 783 783 782
772 772 771 772 772 773 774 774 775 775 776 777 777 778 778 778 779 779 779 779 779 779 779 780 780 780 781 781 782 782 782 782 783 783 783 784 784 784 784 785 785 786 787 788 788 788 788 788 789 788 788 788 787 787 786 786 786 786 785 785 785 784 784 784 784 784 783 783 783
773 773 773 773 774 774 775 776 776 777 778 778 779 779 779 779 779 779 779 779 779 780 780 781 781 781 781 782 782 782 782 783 784 784 784 784 784 785 786 786 787 788 788 789 789 789 789 789 789 789 788 788 787 787 786 786 786 786 786 785 785 785 784 784 784 784 783 783 782
774 774 774 774 775 776 777 777 778 778 779 779 779 779 779 779 779 780 780 780 780 781 782 782 781 782 782 783 783 783 784 784 785 785 785 786 786 787 787 788 788 789 789 789 789 789 789 789 789 789 789 788 788 787 787 786 786 786 786 785 785 785 785 784 784 784 783 783 782
775 775 775 776 777 778 779 779 779 780 780 780 780 780 780 780 780 781 781 782 782 782 783 783 783 783 784 784 784 785 785 786 786 787 787 787 787 788 788 788 788 789 789 789 789 789 789 789 789 789 789 788 788 787 787 787 786 786 786 786 786 785 785 785 784 784 783 783 782
777 777 777 778 779 779 780 781 781 781 781 781 781 781 781 782 782 783 783 784 784 784 784 784 784 785 785 786 786 786 787 787 788 788 788 788 788 788 788 788 788 789 790 789 789 789 789 789 789 789 789 788 788 788 787 787 787 787 786 786 786 786 785 785 784 784 783 783 782
779 779 779 780 780 781 782 782 782 782 782 782 782 783 783 784 784 784 785 785 785 785 785 786 786 786 787 787 787 788 788 788 788 789 789 789 789 788 788 788 789 789 790 790 790 790 790 790 789 789 789 788 788 788 788 787 787 787 787 786 786 786 785 785 784 784 784 783 782
780 780 781 781 782 782 783 783 783 783 783 784 784 785 785 785 786 786 787 787 787 787 787 787 787 788 788 788 788 789 789 789 789 789 789 789 789 789 789 789 789 789 790 790 790 790 790 789 789 789 789 788 788 788 788 788 787 787 787 787 786 786 785 785 784 784 784 783 782
782 782 782 783 783 784 784 784 785 785 785 785 786 786 787 787 787 788 788 788 788 788 788 789 789 789 789 789 789 789 789 789 789 789 789 789 789 789 789 789 789 790 790 791 791 791 790 790 789 789 789 789 789 788 788 788 788 787 787 787 786 786 785 785 784 784 783 783 782
784 784 784 784 785 785 786 786 786 786 787 787 788 788 788 789 789 789 789 789 789 789 789 789 789 789 789 790 790 790 790 790 790 789 789 789 790 790 790 790 790 790 791 791 791 791 791 791 790 789 789 789 789 789 789 788 788 787 787 787 786 786 785 785 784 784 783 783 782
786 786 786 786 787 787 787 788 788 788 788 789 789 789 789 790 790 790 790 790 790 790 790 790 790 790 791 791 791 791 791 790 790 790 790 790 790 790 790 791 791 791 791 792 792 792 792 791 790 790 789 789 789 789 789 788 788 787 787 786 786 785 785 784 784 784 783 783 783
788 788 788 788 788 788 789 789 789 789 789 790 790 790 791 791 791 791 791 791 791 791 791 791 791 792 792 792 792 791 791 791 791 791 791 791 791 791 791 791 791 792 792 792 792 792 792 792 791 790 790 790 789 789 789 788 788 787 787 786 786 785 785 784 784 784 784 783 783
789 789 789 789 789 789 789 790 790 790 791 791 791 791 791 792 792 792 792 792 792 792 792 792 792 793 793 793 792 792 792 792 792 792 792 792 792 792 792 792 792 792 792 793 793 793 792 792 792 791 790 790 790 789 789 788 788 787 787 786 786 785 785 784 784 784 784 783 783
790 790 790 790 790 791 791 791 791 792 792 792 792 792 793 793 793 793 793 793 793 793 793 793 793 793 794 793 793 793 793 793 793 793 793 793 793 793 793 793 793 793 793 793 793 793 793 792 792 791 791 790 790 789 789 788 788 787 787 787 786 786 785 784 784 784 783 783 782